www.pogodaiklimat.ru

Погода и климат >> Архив погоды >> Ирак >> Hella


ПОГОДА в Hella

  • Прогноз погоды в Hella
  • Монитор погоды в Hella
  • Климат города

АРХИВ ПОГОДЫ в Hella

Время (UTC), дата Ветер
(напр.,м/с)
 
Видим.   Явления Облачность Т
(С)
Тd
(С)
f
(%)
Тe
(С)
Тes
(С)
Комфортность P
(гПа)
Po
(гПа)
Тmin
(С)
Tmax
(С)
R
(мм)
R24
(мм)
S
(см)
00 13.09 штиль 0 10 км ясно +28.8 +13.2 38 +30 +30 жарко 1008.0 1008.0
03 13.09 штиль 0 10 км ясно +25.2 +12.8 46 +27 +27 жарко 1008.4 1008.0
09 13.09 С 2 10 км ясно +40.2 +6.6 13 +38 +54 опасность
солнечного
удара
1008.6 1009.0
12 13.09 С 8 10 км ясно +44.4 +4.8 9 +41 +43 опасность
перегрева
1006.2 1006.0
15 13.09 С 2 10 км ясно +39.8 +10.4 17 +38 +38 очень
жарко
1004.9 1005.0
18 13.09 штиль 0 10 км ясно +34.6 +9.7 22 +34 +34 очень
жарко
1004.9 1005.0 +44.6
21 13.09 штиль 0 10 км ясно +30.2 +8.2 25 +29 +29 жарко 1004.2 1004.0
06 14.09 С 3 10 км ясно +32.8 +12.8 30 +33 +40 жарко 1005.0 1005.0 +25.0
09 14.09 С 4 10 км ясно +42.0 +13.8 19 +42 +53 опасность
перегрева
1004.5 1005.0
12 14.09 С 4 10 км ясно +44.8 +10.2 13 +43 +49 опасность
перегрева
1003.3 1003.0
15 14.09 штиль 0 10 км ясно +39.8 +15.4 24 +41 +41 опасность
перегрева
1003.3 1003.0
18 14.09 С 2 10 км ясно +33.0 +14.1 32 +34 +34 очень
жарко
1004.1 1004.0 +45.0
21 14.09 штиль 0 10 км ясно +29.6 +13.1 36 +31 +31 жарко 1004.2 1004.0
00 15.09 С 5 5000 м пыль ясно +31.6 +13.3 33 +33 +33 жарко 1005.0 1005.0
03 15.09 С 2 8000 м пыль ясно +28.4 +14.5 43 +31 +31 душно 1006.0 1006.0
06 15.09 С 7 8000 м пыль ясно +30.8 +15.7 40 +33 +36 душно 1007.3 1007.0 +25.4
09 15.09 С 15 8000 м пыльный позёмок ясно +37.0 +15.0 27 +38 +38 душно 1007.3 1007.0
12 15.09 С 10 8000 м пыльный позёмок ясно +39.2 +14.0 23 +40 +40 очень
душно
1006.5 1007.0
03 16.09 штиль 0 10 км ясно +27.2 +9.5 33 +28 +28 жарко 1008.3 1008.0
15 16.09 СЗ 2 10 км ясно +36.6 +14.1 26 +37 +37 очень
жарко
1006.5 1007.0
03 17.09 штиль 0 10 км ясно +25.2 +14.1 50 +28 +28 жарко 1007.6 1008.0
09 17.09 С 2 10 км 4/0
[Ac trans]
+39.0 +14.1 23 +40 +52 опасность
солнечного
удара
1006.1 1006.0
15 17.09 штиль 0 10 км ясно +37.2 +16.9 30 +40 +40 очень
душно
1004.3 1004.0
21 17.09 штиль 0 10 км ясно +28.2 +14.8 44 +31 +31 душно 1004.6 1005.0
03 18.09 штиль 0 10 км ясно +26.0 +12.1 42 +27 +27 жарко 1005.0 1005.0
09 18.09 В 2 10 км ясно +42.2 +14.4 20 +43 +59 опасность
перегрева
1005.5 1006.0
15 18.09 СВ 2 10 км 5/0
[Ac trans]
+42.4 +14.2 19 +43 +43 опасность
перегрева
1003.5 1004.0
21 18.09 штиль 0 10 км ясно +30.4 +15.2 40 +33 +33 душно 1004.1 1004.0
00 19.09 штиль 0 10 км ясно +28.4 +15.6 46 +31 +31 душно 1003.5 1004.0
03 19.09 штиль 0 10 км ясно +25.4 +14.8 52 +28 +28 жарко 1004.2 1004.0
06 19.09 штиль 0 10 км 5/0
[Ac trans]
+30.6 +15.8 41 +33 +41 душно 1005.6 1006.0 +25.0
09 19.09 штиль 0 10 км 4/0
[Ci fib]
+39.8 +9.6 16 +38 +58 опасность
солнечного
удара
1004.9 1005.0
12 19.09 СЗ 5 10 км 6/0
[Ci fib]
+40.0 +15.5 24 +41 +45 опасность
перегрева
1003.6 1004.0
15 19.09 штиль 0 10 км 8/8 1050 м
[Cu Sc]
+37.6 +19.6 35 +43 +43 опасность
перегрева
1003.8 1004.0

 

Местоположение метеостанции Hella (Ирак): широта 32.45 долгота 44.45 высота над уровнем моря 27 м.

В архиве по умолчанию представлена погода в Hella за последнюю неделю. Архивные данные за месяц целиком и за предыдущие месяцы, начиная с января 2011 года, Вы можете получить, выбрав интересующий диапазон дат из раскрывающегося списка и нажав кнопку "Ввод!".


*Определитесь, кто Вы:
робот инопланетянин человек

Внимание! Время в таблицах - всемирное. Для получения местного времени необходимо прибавить поправку, которая в Hella равна 3 ч.

Смотрите также архив погоды в соседних городах и на ближайших метеорологических станциях:

Погода в Karbalaa (Ирак) (45 км)
Погода в Najaf (Ирак) (54 км)
Погода в Diwaniya (Ирак) (72 км)
Погода в Azizyah (Ирак) (78 км)
Погода в Baghdad (Ирак) (89 км)
Погода в Ubaydah Bin Al Jarrah (Ирак) (122 км)
Погода в Ayn Al-Tamar (Ирак) (125 км)
Погода в Heet (Ирак) (147 км)
Погода в Samawah (Ирак) (150 км)
Погода в Ramadi (Ирак) (153 км)

Пояснения к столбцам:

Ветер - указаны скорость ветра в м/с - средняя за 10 мин, порывы в срок и между сроками (в фигурных скобках) и направление, откуда дует ветер: С - северный, СВ - северо-восточный, В - восточный, ЮВ - юго-восточный, Ю - южный, ЮЗ - юго-западный, З - западный, СЗ - северо-западный.
Видимость - горизонтальная дальность видимости в метрах или километрах. При видимости от 1 до 10 км при отсутствии осадков обычно наблюдается дымка, при ухудшении видимости до 1 км и менее - туман. В сухую погоду видимость может ухудшаться дымом, пылью или мглою.
Явления - указаны атмосферные явления, наблюдавшиеся в срок или в последний час перед сроком; фигурными скобками обозначены явления, наблюдавшиеся между сроками (за 1-3 часа до срока); квадратными скобками обозначены град или гололедные отложения с указанием их диаметра в мм.
Облачность - указаны через наклонную черту общая и нижняя облачность в баллах и высота нижней границы облаков в метрах; квадратными скобками обозначены формы облаков: Ci - перистые, Cs - перисто-слоистые, Cc - перисто-кучевые, Ac - высококучевые, As - высокослоистые, Sc - слоисто-кучевые, Ns - слоисто-дождевые, Cu - кучевые, Cb - кучево-дождевые. Подробнее классификацию облаков см. в Атласе облаков (PDF).
T - Температура воздуха - температура, измеренная на высоте 2 м над землей.
Td - Температура точки росы - температура, при понижении до которой содержащийся в воздухе водяной пар достигнет насыщения.
f - Относительная влажность воздуха - влажноcть воздуха, измеренная на высоте 2 м над землей.
Te - Эффективная температура - температура, которую ощущает одетый по сезону человек в тени. Характеристика душности погоды. При расчете учитывается влияние влажности воздуха и скорости ветра на теплоощущения человека.
Tes - Эффективная температура на солнце - температура, которую ощущает человек, с поправкой на солнечный нагрев. Характеристика знойности погоды. Зависит от высоты солнца над горизонтом, облачности и скорости ветра. Ночью, в пасмурную погоду, а также при ветре 12 м/с и более поправка равна нулю.
P - Атмосферное давление - приведенное к уровню моря атмосферное давление.
Po - Атмосферное давление - измеренное на уровне метеостанции атмосферное давление.
Tmin - Минимальная температура - минимум температуры воздуха на высоте 2 м над землей.
Tmax - Максимальная температура - максимум температуры воздуха на высоте 2 м над землей.
R - Количество осадков - Количество выпавших осадков за период времени, мм. При наведении курсора мыши на число - период времени, за который выпало указанное количество осадков.
R24 - Количество осадков - Количество выпавших осадков за 24 часа, мм.
S - Снежный покров - Высота снежного покрова, см. При наведении курсора мыши на число - состояние снежного покрова и степень покрытия местности в баллах.